GW0125 Weather Reports


time (UTC)temp
C
wind
direction
speed
KPH
gust
KPH
rain 1hr
cm
rain 24hr
cm
rain mn
cm
humidity
%
barometer
mb
20260505110541 6 215 0.0 6.4 0.00 0.00 0.00 82 1011.4
20260505102042 6 0 1.6 6.4 0.00 0.00 0.00 84 1011.3
20260505101547 5 136 0.0 6.4 0.00 0.00 0.00 84 1011.4
20260505101046 6 136 1.6 6.4 0.00 0.00 0.00 83 1011.3
20260505100540 6 115 0.0 4.8 0.00 0.00 0.00 83 1011.4
20260505100049 6 0 0.0 4.8 0.00 0.00 0.00 82 1011.2
20260505095539 6 0 0.0 6.4 0.00 0.00 0.00 82 1011.1
20260505095043 6 115 1.6 6.4 0.00 0.00 0.00 81 1011.2
20260505094550 6 114 0.0 6.4 0.00 0.00 0.00 81 1011.0
20260505094042 6 109 0.0 6.4 0.00 0.00 0.00 81 1011.1
20260505093544 6 73 1.6 6.4 0.00 0.00 0.00 81 1011.2
20260505093048 6 0 0.0 3.2 0.00 0.00 0.00 81 1011.2
20260505092545 6 0 0.0 3.2 0.00 0.00 0.00 81 1011.2
20260505092041 6 0 0.0 3.2 0.00 0.00 0.00 81 1011.1
20260505091549 6 0 0.0 3.2 0.00 0.00 0.00 80 1011.2
20260505091040 7 0 0.0 0.0 0.00 0.00 0.00 80 1011.3
20260505090541 7 0 0.0 0.0 0.00 0.00 0.00 80 1011.5
20260505090105 7 0 0.0 0.0 0.00 0.00 0.00 80 1011.4
20260505085543 7 0 0.0 1.6 0.00 0.00 0.00 80 1011.3
20260505085039 7 0 0.0 1.6 0.00 0.00 0.00 81 1011.4
20260505084548 7 0 0.0 3.2 0.00 0.00 0.00 81 1011.5
20260505084042 7 0 0.0 3.2 0.00 0.00 0.00 81 1011.8
20260505083542 7 0 0.0 3.2 0.00 0.00 0.00 81 1011.8
20260505083103 7 0 0.0 3.2 0.00 0.00 0.00 81 1011.9
20260505082543 7 0 0.0 4.8 0.00 0.00 0.00 81 1011.8
20260505082041 7 0 0.0 4.8 0.00 0.00 0.00 81 1012.0
20260505081552 7 0 0.0 4.8 0.00 0.00 0.00 81 1012.0
20260505081041 7 49 0.0 4.8 0.00 0.00 0.00 81 1012.0
20260505080539 7 50 0.0 4.8 0.00 0.00 0.00 81 1012.0
20260505080055 7 0 0.0 6.4 0.00 0.00 0.00 81 1012.0
20260505075541 7 49 1.6 8.0 0.00 0.00 0.00 81 1012.0
20260505075043 7 49 1.6 11.3 0.00 0.00 0.00 81 1012.1
20260505074553 7 49 1.6 11.3 0.00 0.00 0.00 81 1012.2
20260505074042 7 49 4.8 11.3 0.00 0.00 0.00 81 1012.2
20260505073541 7 49 1.6 9.7 0.00 0.00 0.00 81 1012.2
20260505073057 7 0 1.6 9.7 0.00 0.00 0.00 81 1012.4
20260505072545 7 0 1.6 9.7 0.00 0.00 0.00 81 1012.2
20260505072042 7 50 1.6 8.0 0.00 0.00 0.00 81 1012.4
20260505071548 7 49 1.6 8.0 0.00 0.00 0.00 80 1012.1
20260505071041 7 50 3.2 8.0 0.00 0.00 0.00 80 1012.1
20260505070545 7 49 1.6 11.3 0.00 0.00 0.00 80 1012.1
20260505070054 7 0 1.6 11.3 0.00 0.00 0.00 80 1012.2
20260505065542 7 49 3.2 11.3 0.00 0.00 0.00 80 1012.2
20260505065041 7 49 3.2 11.3 0.00 0.00 0.00 80 1012.2
20260505064550 7 49 1.6 9.7 0.00 0.00 0.00 80 1012.3
20260505064039 7 0 3.2 9.7 0.00 0.00 0.00 79 1012.2
20260505063539 7 49 1.6 8.0 0.00 0.00 0.00 79 1012.2
20260505063047 7 49 3.2 8.0 0.00 0.00 0.00 79 1012.4
20260505062543 7 49 0.0 6.4 0.00 0.00 0.00 78 1012.5
20260505062043 7 0 1.6 6.4 0.00 0.00 0.00 77 1012.4
20260505061555 8 49 0.0 9.7 0.00 0.00 0.00 77 1012.2
20260505061039 8 0 1.6 9.7 0.00 0.00 0.00 76 1012.4
20260505060545 8 49 3.2 8.0 0.00 0.00 0.00 75 1012.4
20260505060058 8 48 1.6 8.0 0.00 0.00 0.00 74 1012.2
20260505055542 8 0 0.0 8.0 0.00 0.00 0.00 74 1012.5
20260505055045 8 46 1.6 8.0 0.00 0.00 0.00 73 1012.7
20260505054550 8 41 0.0 8.0 0.00 0.00 0.00 71 1012.7
20260505054040 8 41 1.6 8.0 0.00 0.00 0.00 70 1012.5
20260505053545 8 41 3.2 9.7 0.00 0.00 0.00 70 1012.5
20260505053050 8 41 3.2 11.3 0.00 0.00 0.00 69 1012.5
20260505052540 8 41 3.2 14.5 0.00 0.00 0.00 69 1012.7
20260505052045 8 41 4.8 19.3 0.00 0.00 0.00 69 1012.6
20260505051552 8 42 3.2 19.3 0.00 0.00 0.00 68 1012.7
20260505051043 8 40 11.3 19.3 0.00 0.00 0.00 68 1012.4
20260505050543 8 51 8.0 20.9 0.00 0.00 0.00 68 1012.5
20260505050126 8 45 4.8 20.9 0.00 0.00 0.00 68 1012.5
20260505041605 8 47 1.6 22.5 0.00 0.00 0.00 67 1012.0
20260505041043 8 22 9.7 22.5 0.00 0.00 0.00 67 1011.7
20260505040542 8 53 4.8 17.7 0.00 0.00 0.00 66 1011.6
20260505040058 8 53 8.0 17.7 0.00 0.00 0.00 66 1011.7
20260505035540 9 53 6.4 17.7 0.00 0.00 0.00 65 1011.7
20260505035040 9 53 3.2 16.1 0.00 0.00 0.00 65 1011.6
20260505034549 9 53 8.0 19.3 0.00 0.00 0.00 64 1011.5
20260505034041 9 54 8.0 22.5 0.00 0.00 0.00 64 1011.6
20260505033541 9 52 11.3 22.5 0.00 0.00 0.00 64 1011.6
20260505033049 9 52 9.7 24.1 0.00 0.00 0.00 64 1011.5
20260505032540 9 49 12.9 24.1 0.00 0.00 0.00 64 1011.6
20260505032040 10 47 8.0 22.5 0.00 0.00 0.00 63 1011.7
20260505031548 10 46 9.7 22.5 0.00 0.00 0.00 62 1011.6
20260505031043 10 28 6.4 19.3 0.00 0.00 0.00 62 1011.6
20260505030542 10 18 6.4 19.3 0.00 0.00 0.00 62 1011.5
20260505030045 10 56 6.4 19.3 0.00 0.00 0.00 61 1011.3
20260505025540 10 56 4.8 17.7 0.00 0.00 0.00 61 1011.3
20260505025042 10 56 8.0 17.7 0.00 0.00 0.00 61 1011.2
20260505024550 10 55 4.8 14.5 0.00 0.00 0.00 61 1011.5
20260505024040 10 56 6.4 19.3 0.00 0.00 0.00 61 1011.6
20260505023543 10 55 8.0 19.3 0.00 0.00 0.00 61 1011.3
20260505023053 10 56 6.4 19.3 0.00 0.00 0.00 61 1011.3
20260505022540 10 56 4.8 14.5 0.00 0.00 0.00 61 1011.3
20260505022039 10 56 4.8 14.5 0.00 0.00 0.00 61 1011.4
20260505021551 10 56 4.8 17.7 0.00 0.00 0.00 61 1011.6
20260505021041 10 56 6.4 22.5 0.00 0.00 0.00 61 1011.5
20260505020542 10 56 11.3 30.6 0.00 0.00 0.00 60 1011.6
20260505020045 10 57 9.7 30.6 0.00 0.00 0.00 60 1011.6
20260505015542 10 50 6.4 19.3 0.00 0.00 0.00 60 1011.6
20260505015039 10 49 9.7 19.3 0.00 0.00 0.00 59 1011.4
20260505014602 11 46 8.0 17.7 0.00 0.00 0.00 59 1011.3
20260505014042 11 40 8.0 20.9 0.00 0.00 0.00 59 1011.1
20260505013541 11 36 9.7 29.0 0.00 0.00 0.00 59 1010.9
20260505013051 11 25 9.7 29.0 0.00 0.00 0.00 58 1011.0
20260505012542 11 15 14.5 29.0 0.00 0.00 0.00 56 1011.0
20260505012042 12 38 9.7 20.9 0.00 0.00 0.00 55 1011.2
20260505011550 12 36 8.0 17.7 0.00 0.00 0.00 53 1011.0
20260505011043 12 38 4.8 16.1 0.00 0.00 0.00 52 1010.9
20260505010542 12 33 6.4 17.7 0.00 0.00 0.00 50 1010.7
20260505010050 12 33 1.6 22.5 0.00 0.00 0.00 51 1010.7
20260505005542 12 34 12.9 22.5 0.00 0.00 0.00 50 1010.5
20260505005042 12 5 8.0 20.9 0.00 0.00 0.00 51 1010.7
20260505004551 13 345 6.4 29.0 0.00 0.00 0.00 51 1010.7
20260505004041 13 11 14.5 38.6 0.00 0.00 0.00 49 1010.2
20260505003540 13 10 17.7 38.6 0.00 0.00 0.00 44 1010.2
20260505003050 14 39 22.5 35.4 0.00 0.00 0.00 43 1009.9
20260505002542 15 46 17.7 30.6 0.00 0.00 0.00 41 1009.7
20260505002038 15 44 14.5 30.6 0.00 0.00 0.00 39 1009.6
20260505001601 15 67 6.4 19.3 0.00 0.00 0.00 38 1009.2
20260505001040 15 72 4.8 25.7 0.00 0.00 0.00 38 1009.0
20260505000538 15 73 8.0 29.0 0.00 0.00 0.00 38 1009.0
20260505000103 16 44 12.9 29.0 0.00 0.00 0.00 38 1008.9
20260504235542 16 34 12.9 30.6 0.00 0.00 0.00 38 1008.8
20260504235038 16 74 11.3 30.6 0.00 0.00 0.00 38 1008.8
20260504234607 16 51 12.9 27.4 0.00 0.00 0.00 37 1008.9
20260504234041 16 74 8.0 27.4 0.00 0.00 0.00 37 1008.6
20260504233544 16 44 14.5 27.4 0.00 0.00 0.00 37 1008.8
20260504233103 17 67 9.7 27.4 0.00 0.00 0.00 37 1008.8
20260504232542 17 55 4.8 17.7 0.00 0.00 0.00 38 1008.6
20260504232038 16 0 4.8 17.7 0.00 0.00 0.00 38 1008.8
20260504231550 16 200 0.0 8.0 0.00 0.00 0.00 39 1008.8
20260504231038 16 0 1.6 8.0 0.00 0.00 0.00 41 1008.8
20260504230538 16 200 1.6 8.0 0.00 0.00 0.00 40 1008.8
20260504230047 16 200 1.6 9.7 0.00 0.00 0.00 41 1008.6
20260504225540 16 0 4.8 11.3 0.00 0.00 0.00 42 1008.7
20260504225040 16 200 3.2 11.3 0.00 0.00 0.00 41 1008.6
20260504224606 16 201 4.8 11.3 0.00 0.00 0.00 41 1008.4
20260504224039 16 201 3.2 14.5 0.00 0.00 0.00 42 1008.4
20260504223541 16 200 4.8 14.5 0.00 0.00 0.00 41 1008.4
20260504223051 16 202 4.8 14.5 0.00 0.00 0.00 39 1008.5
20260504222538 16 0 4.8 14.5 0.00 0.00 0.00 39 1008.7
20260504222042 17 213 4.8 22.5 0.00 0.00 0.00 37 1008.7
20260504221549 17 225 6.4 22.5 0.00 0.00 0.00 36 1008.6
20260504221042 17 234 6.4 27.4 0.00 0.00 0.00 35 1008.3
20260504220544 17 236 14.5 27.4 0.00 0.00 0.00 35 1008.6
20260504220051 17 0 4.8 27.4 0.00 0.00 0.00 36 1008.6
20260504215539 17 304 8.0 27.4 0.00 0.00 0.00 34 1008.7
20260504215037 17 292 4.8 27.4 0.00 0.00 0.00 35 1008.7
20260504214550 16 0 0.0 14.5 0.00 0.00 0.00 34 1008.8
20260504214041 17 0 4.8 25.7 0.00 0.00 0.00 33 1008.7
20260504213541 17 0 1.6 25.7 0.00 0.00 0.00 34 1008.7
20260504213119 17 80 11.3 33.8 0.00 0.00 0.00 35 1008.7
20260504212541 17 51 9.7 35.4 0.00 0.00 0.00 32 1008.6
20260504212045 17 360 17.7 35.4 0.00 0.00 0.00 32 1008.8
20260504211555 18 355 12.9 27.4 0.00 0.00 0.00 30 1008.5
20260504211041 18 32 14.5 32.2 0.00 0.00 0.00 29 1008.4
20260504210541 18 336 16.1 32.2 0.00 0.00 0.00 29 1008.2
20260504210044 19 29 19.3 32.2 0.00 0.00 0.00 29 1008.2
20260504205542 20 30 14.5 29.0 0.00 0.00 0.00 29 1008.2
20260504205043 20 29 14.5 27.4 0.00 0.00 0.00 28 1008.0
20260504204552 20 37 1.6 9.7 0.00 0.00 0.00 27 1008.2
20260504204042 20 0 0.0 14.5 0.00 0.00 0.00 28 1008.2
20260504203539 20 0 4.8 16.1 0.00 0.00 0.00 27 1008.3
20260504203104 20 314 1.6 17.7 0.00 0.00 0.00 29 1008.4
20260504202542 20 30 6.4 17.7 0.00 0.00 0.00 29 1008.5
20260504202041 20 0 8.0 22.5 0.00 0.00 0.00 29 1008.5
20260504201548 19 28 6.4 22.5 0.00 0.00 0.00 30 1008.7
20260504201041 18 0 4.8 24.1 0.00 0.00 0.00 31 1008.6
20260504200538 18 334 11.3 24.1 0.00 0.00 0.00 30 1008.7
20260504200052 18 355 9.7 33.8 0.00 0.00 0.00 31 1008.9
20260504195541 18 355 11.3 45.1 0.00 0.00 0.00 30 1009.0
20260504195045 19 302 20.9 45.1 0.00 0.00 0.00 29 1008.9
20260504194600 20 360 22.5 41.8 0.00 0.00 0.00 27 1008.9
20260504194042 21 5 17.7 27.4 0.00 0.00 0.00 25 1008.8
20260504193542 22 22 14.5 27.4 0.00 0.00 0.00 24 1008.9
20260504193056 22 360 8.0 22.5 0.00 0.00 0.00 22 1008.7
20260504192541 22 11 3.2 17.7 0.00 0.00 0.00 22 1008.8
20260504192041 22 306 6.4 22.5 0.00 0.00 0.00 21 1008.8
20260504191549 23 302 8.0 22.5 0.00 0.00 0.00 23 1008.8
20260504191041 23 28 4.8 27.4 0.00 0.00 0.00 23 1008.6
20260504190545 22 279 11.3 27.4 0.00 0.00 0.00 24 1008.7
20260504185542 22 207 12.9 24.1 0.00 0.00 0.00 23 1009.0
20260504185041 22 249 6.4 20.9 0.00 0.00 0.00 24 1009.1
20260504184559 22 329 9.7 19.3 0.00 0.00 0.00 23 1009.3
20260504184043 21 13 4.8 14.5 0.00 0.00 0.00 24 1009.4
20260504183542 21 24 3.2 16.1 0.00 0.00 0.00 25 1009.3
20260504183046 21 0 6.4 16.1 0.00 0.00 0.00 24 1009.6
20260504182544 21 40 4.8 20.9 0.00 0.00 0.00 24 1009.7
20260504182039 21 12 8.0 20.9 0.00 0.00 0.00 23 1009.9
20260504181546 21 323 6.4 20.9 0.00 0.00 0.00 26 1010.1
20260504181041 21 323 0.0 8.0 0.00 0.00 0.00 24 1009.9
20260504180539 21 228 1.6 8.0 0.00 0.00 0.00 25 1009.9
20260504180051 20 0 3.2 16.1 0.00 0.00 0.00 26 1009.9
20260504175542 20 0 3.2 16.1 0.00 0.00 0.00 26 1009.9
20260504175043 21 202 9.7 19.3 0.00 0.00 0.00 24 1010.2
20260504174555 20 207 6.4 19.3 0.00 0.00 0.00 28 1010.3
20260504174042 19 225 8.0 19.3 0.00 0.00 0.00 29 1010.5
20260504173542 18 360 3.2 14.5 0.00 0.00 0.00 30 1010.7
20260504173051 17 349 4.8 35.4 0.00 0.00 0.00 27 1010.8
20260504172541 18 355 12.9 35.4 0.00 0.00 0.00 25 1010.9
20260504172044 18 298 8.0 40.2 0.00 0.00 0.00 27 1010.8
20260504171548 18 36 11.3 40.2 0.00 0.00 0.00 29 1010.9
20260504171044 18 304 16.1 40.2 0.00 0.00 0.00 29 1011.0
20260504170542 18 325 8.0 33.8 0.00 0.00 0.00 30 1011.0
20260504151041 13 287 19.3 45.1 0.00 0.00 0.00 39 1011.5
20260504150541 13 287 16.1 48.3 0.00 0.00 0.00 37 1011.4
20260504141041 14 306 14.5 37.0 0.00 0.00 0.00 37 1011.1
20260504140541 14 13 11.3 32.2 0.00 0.00 0.00 37 1011.1
20260504130545 9 96 0.0 11.3 0.00 0.00 0.00 47 1011.4